User: anonymous   Login
Location: Detroit
(42.3310°N, 83.0460°W)
Time: 17:11:57
(UTC-04:00)
Language:

Explorer 11/Cluster Stage 4 - Orbit

View from above orbital plane
View from above orbital plane
View from above satellite
View from above satellite

Ground track
Ground track

The orbit data is extracted from the following two-line orbital elements,

1 00107U 61013A   24106.55904350  .00004967  00000-0  62378-3 0  9998
2 00107  28.7883 184.4446 0522804 321.7492  34.7068 14.14920258163819
Epoch (UTC): 15 April 2024 13:25:01
Eccentricity: 0.0522804
inclination: 28.7883°
perigee height: 465 km
apogee height: 1220 km
right ascension of ascending node: 184.4446°
argument of perigee: 321.7492°
revolutions per day: 14.14920258
mean anomaly at epoch: 34.7068°
orbit number at epoch: 16381

The dashed part of the orbit path shows where the satellite is in the earth's shadow,  

DLR